Regional Weather Roundup
Issued by NWS

Home | Current Version | Previous Version | Graphics & Text | Print | Product List | Glossary On
Versions: 1 2 3 4 5 6 7 8 9 10 11 12 13 14 15 16 17 18 19 20 21 22 23 24 25 26 27 28 29 30 31 32 33 34 35 36 37 38 39 40 41 42 43 44 45 46 47 48 49 50
000
ASUS45 KBOU 030607
RWRCO

WEATHER ROUNDUP FOR COLORADO
NATIONAL WEATHER SERVICE DENVER/BOULDER CO
1200 AM MDT SUN MAY 03 2015

NOTE: "FAIR" INDICATES FEW OR NO CLOUDS BELOW 12000 FEET WITH NO
SIGNIFICANT WEATHER AND/OR OBSTRUCTIONS TO VISIBILITY.

COZ001>005-013-030-031-030700-
...NORTHWEST COLORADO...

CITY           SKY/WX    TMP DP  RH WIND       PRES   REMARKS
CRAIG          PTCLDY    45  38  76 NE6       30.03R
HAYDEN         MOCLDY    46  36  66 E13       30.04S
MEEKER         MOCLDY    51  37  58 E7        30.02F
MOUNT WERNER   NOT AVBL
STEAMBOAT SPGS PTCLDY    42  35  75 N5        30.07S
WALDEN         CLOUDY    36  32  87 SE7       30.12R
$$

COZ006>008-011-030700-
...WEST CENTRAL VALLEYS...

CITY           SKY/WX    TMP DP  RH WIND       PRES   REMARKS
GRAND JUNCTION MOCLDY    66  33  29 NE16      29.91R
MONTROSE       PTCLDY    58  29  33 E6        29.99R
EAGLE          PTCLDY    46  37  71 SE3       30.12S
RIFLE          PTCLDY    56  36  47 CALM      30.00F
DELTA          PTCLDY    65  31  27 SE3       29.95S
NUCLA          PTCLDY    64  27  24 S23G30    30.01F
$$

COZ017>023-064>068-030700-
...SOUTHWEST COLORADO...

CITY           SKY/WX    TMP DP  RH WIND       PRES   REMARKS
DURANGO        MOCLDY    49  35  58 E6        30.11S
CORTEZ         CLEAR     53  33  46 VRB3      30.05S
PAGOSA SPRINGS MOCLDY    49  32  52 CALM      30.17F
TELLURIDE      MOCLDY    49  24  37 E3        30.21S
WOLF CREEK PAS NOT AVBL
$$

COZ009-010-012-014-032>034-037-058>063-030700-
...CENTRAL COLORADO...

CITY           SKY/WX    TMP DP  RH WIND       PRES   REMARKS
ASPEN          MOCLDY    40  35  83 SW6       30.11F
BUENA VISTA    NOT AVBL
COPPER MTN     PTCLDY    37  28  70 S13G18    30.31S
BERTHOUD PASS  FAIR      32  23  69 W14G28    30.33S WCI  22
COTTONWOOD PAS MOCLDY    43  34  70 SW8       30.24F
GUNNISON       PTCLDY    48  28  46 N6        30.16S
KREMMLING      PTCLDY    39  34  81 NE3       30.12S
LEADVILLE      PTCLDY    32  30  92 NE6       30.22F WCI  26
MONARCH PASS   PTCLDY    34  28  80 S7        30.43F WCI  28
SALIDA         MOCLDY    49  40  70 NW7       30.23S
SUNLIGHT       PTCLDY    41  30  65 CALM      30.28S
WILKERSON PASS MOCLDY    34  30  86 SW9G17    30.31F WCI  26
$$

COZ069>075-030700-
...SAN LUIS VALLEY/SANGRE DE CRISTO MOUNTAINS...

CITY           SKY/WX    TMP DP  RH WIND       PRES   REMARKS
ALAMOSA        MOCLDY    41  37  86 S6        30.16S
LA VETA PASS   CLOUDY    39  32  75 MISG      30.25F
SAGUACHE       MOCLDY    43  36  75 NE5       30.18S
$$

COZ035-036-038>040-030700-
...NORTHERN COLORADO FRONT RANGE...

CITY           SKY/WX    TMP DP  RH WIND       PRES   REMARKS
DENVER INTL AP MOCLDY    53  40  61 SW14      29.97F
DMNS CITY PARK   N/A     57  38  50 SW6G15    29.97F
AURORA         MOCLDY    53  40  61 SW13      29.99F
FRONT RANGE AP NOT AVBL
ERIE MUNI ARPT MOCLDY    53  41  62 SW3       29.96S
BOULDER MUN AP MOCLDY    61  32  33 W7        29.95F
CENTENNIAL     MOCLDY    50  40  68 S9        30.00F
BROOMFIELD     MOCLDY    54  39  58 S8        29.99S
FORT COLLINS   CLOUDY    54  39  58 SE9       29.95S
LONGMONT       CLOUDY    57  37  48 SW5       29.96S
$$

COZ041-046-047-076>085-087-088-030700-
...PIKES PEAK/PALMER DIVIDE AND SOUTHERN FOOTHILLS...

CITY           SKY/WX    TMP DP  RH WIND       PRES   REMARKS
COLO. SPRINGS  MOCLDY    52  41  66 W6        30.05R
A. F. ACADEMY  MOCLDY    48  38  69 N8        30.05F
ELLICOTT         N/A    N/A N/A N/A CALM      30.05R
FALCON         PTCLDY    49  37  62 CALM      30.08S
FORT CARSON    PTCLDY    54  41  62 S3        30.03R
LIMON          CLOUDY    48  41  76 CALM      29.99F
MONUMENT HILL  PTCLDY    45  37  76 SW6       30.07F
TRINIDAD       MOCLDY    51  40  65 SW8       30.03F
$$

COZ042>045-048>051-090-091-030700-
...NORTHEAST COLORADO...

CITY           SKY/WX    TMP DP  RH WIND       PRES   REMARKS
GREELEY ARPT   CLOUDY    55  39  54 SW10      29.93F
AKRON          MOCLDY    52  45  77 SW12      29.92F
BURLINGTON     CLOUDY    57  43  59 SW9       29.91F
WRAY           CLOUDY    59  45  60 W13G20    29.86S
STERLING       MOCLDY    52  46  82 CALM      29.88S
HOLYOKE        NOT AVBL
FORT MORGAN    MOCLDY    52  33  48 SW6       29.93S
$$

COZ086-089-092>099-030700-
...SOUTHEAST COLORADO...

CITY           SKY/WX    TMP DP  RH WIND       PRES   REMARKS
PUEBLO         CLOUDY    58  43  57 NE10      29.98S
LA JUNTA       MOCLDY    57  44  62 MISG      29.94F
LAMAR          CLOUDY    54  48  80 W8        29.87R
SPRINGFIELD      N/A     53  45  74 SW5       29.94R
$$


USA.gov is the U.S. government's official web portal to all federal, state and local government web resources and services.